Retour au catalogue

DMSP 5D-2 F13 DEB

ActifSSO
NORAD 40479·DEBRIS·🇺🇸 United States

Lancé Mar 24, 1995 depuis Vandenberg Space Force Base

Loading…

Prochains Passages (prochaines 24 heures)

TLE

FraisSource: Space-Track

Époque: Sep 12, 2026, 11:51 UTC

1 40479U 95015BX  26255.49443514  .00000617  00000-0  29599-3 0  9999
2 40479  98.7554 274.9864 0004349 130.0211 230.1349 14.22569012595498

Suivez DMSP 5D-2 F13 DEB en temps réel avec AllMySat

Download on the App Store